Starlink 30707

operational
NORAD ID: 57949 Int'l Des: 2023-148 Owner: SPXS Country: US Constellation: starlink
LEOCIRCULAR

Starlink 30707について

説明を読み込み中...

リアルタイム位置

3D地球を読み込み中...

次回通過

高度履歴

Altitude vs Time

uPlot chart will show altitude changes over time

軌道要素

1 57949U 23148Q 25305.17007355 .00001978 00000-0 78873-4 0 9997
2 57949 53.1610 261.3671 0001250 92.2847 267.8297 15.30206965118747
Epoch: Nov 1, 2025 • Age: 22 hours

現在のステータス

高度 480.1 km
速度 7.63 km/s
衛星直下点 49.42°N, 119.16°W
打ち上げ日 Sep 25, 2023
運用期間 2.1 years
タイプ internet

技術仕様

分類 Payload
質量 730.00 kg
乾燥質量 700.00 kg
総質量 730.00 kg
長さ 0.30 m
直径 4.10 m
スパン 29.00 m
形状 Box + pan
製造者 SPXS
バスタイプ Starlink V2M
フェーズステータス In Orbit
所有者/国 SPXS/US

大規模コンステレーション

Loading constellations...